Home > Time Zones > World Clock > Weather > Russia > Perm > Past weeks

Flag for Russia Weather past 2 weeks in Perm, Russia

Now
12 °F

Mostly cloudy.


Feels Like: -4 °F
Forecast: 1 / 7 °F
Wind: 15 mph from Southwest

Location: Perm'/Bolshoe Savino

Current Time: Jan 26, 2015 at 6:08:25 AM

Latest Report: Jan 26, 2015 at 5:30 AM


Visibility: N/A

Pressure: 30.57 "Hg

Humidity: 79%

Dew point: 7 °F

Location of PermLocation

Historic Weather in Perm — Graph

°F

Perm temperature yesterday

Maximum temperature yesterday: 10 °F (at 1:00 PM)
Minimum temperature yesterday: 5 °F (at 12:00 AM)
Average temperature yesterday: 9 °F

Past Weeks' High & Low Weather Summary

 TemperatureHumidityPressure
High34 °F (Jan 15, 9:30 AM)100% (Jan 13, 5:00 AM)30.83 "Hg (Jan 13, 5:00 AM)
Low-27 °F (Jan 23, 9:00 AM)61% (Jan 25, 4:30 AM)29.42 "Hg (Jan 13, 8:30 AM)
Average15 °F85%30.01 "Hg
* Reported Jan 11 5:00 AM — Jan 26 5:00 AM, Perm, Weather by CustomWeather, © 2014

Note: Actual official high and low records may vary slightly from our data, if they occured in-between our weather recording intervals... More about our weather records

Advertising

Perm weather history for previous 24 hours

 ConditionsComfort  
Time TempWeatherWind HumidityBarometerVisibility
5:00 AM
Jan 26
10 °FMostly cloudy.17 mph85%30.60 "HgN/A
4:30 AM10 °FLight snow. Mostly cloudy.15 mph85%30.60 "HgN/A
4:00 AM10 °FLight snow. Mostly cloudy.15 mph85%30.60 "HgN/A
3:30 AM10 °FLight snow. Mostly cloudy.15 mph85%30.63 "HgN/A
3:00 AM10 °FLight snow. Mostly cloudy.13 mph85%30.63 "HgN/A
2:30 AM10 °FLight snow. Mostly cloudy.13 mph85%30.63 "HgN/A
1:00 AM10 °FMostly cloudy.15 mph85%30.63 "HgN/A
12:00 AM10 °FLight snow. Mostly cloudy.13 mph85%30.66 "HgN/A
11:30 PM
Jan 25
10 °FLight snow. Mostly cloudy.10 mph85%30.66 "HgN/A
11:00 PM10 °FLight snow. Mostly cloudy.13 mph85%30.66 "HgN/A
10:30 PM10 °FLight snow. Mostly cloudy.13 mph85%30.66 "HgN/A
10:00 PM10 °FLight snow. Mostly cloudy.10 mph85%30.66 "HgN/A
9:30 PM10 °FLight snow. Mostly cloudy.13 mph85%30.66 "HgN/A
9:00 PM10 °FLight snow. Mostly cloudy.13 mph85%30.66 "HgN/A
8:30 PM10 °FLight snow. Mostly cloudy.13 mph85%30.66 "HgN/A
8:00 PM10 °FLight snow. Mostly cloudy.15 mph85%30.66 "HgN/A
7:30 PM10 °FLight snow. Mostly cloudy.13 mph85%30.66 "HgN/A
7:00 PM10 °FLight snow. Mostly cloudy.13 mph85%30.66 "HgN/A
6:30 PM10 °FLight snow. Mostly cloudy.13 mph85%30.66 "Hg4 mi
6:00 PM10 °FLight snow. Mostly cloudy.15 mph85%30.66 "Hg4 mi
5:30 PM10 °FLight snow. Mostly cloudy.13 mph85%30.66 "Hg6 mi
5:00 PM10 °FLight snow. Mostly cloudy.10 mph85%30.63 "HgN/A
4:30 PM9 °FBroken clouds.10 mph85%30.63 "HgN/A
4:00 PM9 °FLight snow. Mostly cloudy.13 mph85%30.63 "HgN/A
3:00 PM10 °FLight snow. Mostly cloudy.13 mph79%30.60 "Hg4 mi
2:30 PM10 °FLight snow. Overcast.15 mph79%30.60 "Hg5 mi
2:00 PM10 °FLight snow. Mostly cloudy.17 mph79%30.60 "Hg2 mi
1:30 PM10 °FLight snow. Mostly cloudy.17 mph79%30.60 "Hg2 mi
1:00 PM10 °FLight snow. Mostly cloudy.17 mph79%30.60 "Hg3 mi
12:30 PM9 °FLight snow. Mostly cloudy.17 mph85%30.60 "Hg3 mi
12:00 PM9 °FLight snow. Mostly cloudy.17 mph85%30.60 "Hg3 mi
11:30 AM9 °FLight snow. Mostly cloudy.17 mph85%30.60 "Hg2 mi
11:00 AM7 °FSnow. Mostly cloudy.20 mph92%30.60 "Hg1 mi
10:30 AM7 °FLight snow. Mostly cloudy.20 mph85%30.60 "Hg1 mi
10:00 AM7 °FSnow. Mostly cloudy.17 mph85%30.60 "Hg1 mi
9:30 AM7 °FSnow. Mostly cloudy.17 mph85%30.57 "Hg1 mi
9:00 AM7 °FSnow. Mostly cloudy.17 mph85%30.57 "Hg1 mi
8:30 AM7 °FSnow. Mostly cloudy.20 mph85%30.57 "Hg1 mi
7:30 AM7 °FSnow. Mostly cloudy.22 mph78%30.57 "Hg1 mi
7:00 AM7 °FClear.22 mph72%30.60 "Hg10 mi
6:30 AM9 °FClear.20 mph66%30.60 "Hg10 mi
6:00 AM9 °FClear.17 mph66%30.60 "Hg10 mi
Weather by CustomWeather, © 2014

See weather overviewHow to use our weather pages